EW9798 Weather Reports


Display with metric or nautical units.
time (UTC)temp
F
wind
direction
speed
MPH
gust
MPH
rain 1hr
in
rain 24hr
in
rain mn
in
humidity
%
barometer
mb
20260905160031 54 202 0.0 0.0 0.00 0.01 0.00 98 1020.1
20260905153032 53 202 0.0 0.0 0.00 0.01 0.00 98 1020.2
20260905151531 52 202 0.0 0.0 0.00 0.01 0.00 98 1020.1
20260905150031 52 201 0.0 2.0 0.00 0.01 0.00 98 1020.0
20260905144529 52 135 0.0 0.0 0.00 0.01 0.00 98 1019.9
20260905143107 51 145 0.0 0.0 0.00 0.02 0.00 98 1019.8
20260905141532 51 157 0.0 0.0 0.00 0.02 0.00 98 1019.8
20260905140031 50 142 0.0 2.0 0.00 0.02 0.00 98 1019.7
20260905134531 50 112 0.0 0.0 0.00 0.02 0.00 98 1019.5
20260905131607 50 112 0.0 0.0 0.00 0.02 0.00 98 1019.3
20260905130032 51 134 0.0 2.0 0.00 0.02 0.00 98 1019.2
20260905124531 51 135 1.0 4.0 0.00 0.02 0.00 98 1019.2
20260905123030 51 169 0.0 3.0 0.00 0.02 0.00 98 1019.4
20260905121529 51 180 0.0 3.0 0.00 0.02 0.00 97 1019.3
20260905114532 50 135 0.0 2.0 0.00 0.02 0.00 97 1019.2
20260905113105 51 135 2.0 3.0 0.00 0.02 0.00 97 1019.1
20260905110032 51 135 1.0 4.0 0.00 0.02 0.00 97 1019.0
20260905104530 51 135 1.0 3.0 0.00 0.02 0.00 97 1019.1
20260905103032 52 135 0.0 0.0 0.00 0.02 0.00 97 1019.0
20260905101530 52 135 0.0 0.0 0.00 0.02 0.00 97 1019.0
20260905100031 52 135 0.0 2.0 0.00 0.02 0.00 97 1019.0
20260905094530 52 135 0.0 0.0 0.00 0.02 0.00 97 1019.1
20260905093033 52 135 0.0 1.0 0.00 0.02 0.00 96 1019.1
20260905091530 52 135 0.0 2.0 0.00 0.02 0.00 96 1019.0
20260905090031 52 135 0.0 2.0 0.00 0.02 0.00 96 1018.9
20260905084530 52 143 0.0 2.0 0.00 0.02 0.00 96 1018.9
20260905083031 52 186 0.0 0.0 0.00 0.02 0.00 96 1018.8
20260905081606 52 202 0.0 0.0 0.00 0.02 0.00 96 1018.7
20260905080028 52 202 0.0 2.0 0.00 0.02 0.00 96 1018.6
20260905074607 53 167 1.0 4.0 0.00 0.02 0.00 95 1018.5
20260905073031 53 115 3.0 5.0 0.00 0.02 0.00 95 1018.3
20260905071608 53 154 1.0 3.0 0.01 0.02 0.00 95 1018.2
20260905070030 54 161 1.0 4.0 0.01 0.02 0.00 95 1018.1
20260905064531 54 112 0.0 2.0 0.01 0.02 0.02 95 1017.9
20260905063031 54 114 0.0 3.0 0.01 0.02 0.01 94 1017.9
20260905060032 54 157 0.0 0.0 0.00 0.01 0.01 93 1017.9
20260905053031 54 135 1.0 3.0 0.00 0.01 0.01 92 1017.7
20260905051606 54 135 0.0 2.0 0.00 0.01 0.01 91 1017.8
20260905043031 53 112 1.0 3.0 0.00 0.01 0.01 92 1017.6
20260905041531 53 112 2.0 4.0 0.00 0.01 0.01 91 1017.5
20260905040030 54 112 1.0 3.0 0.00 0.01 0.01 90 1017.4
20260905030032 57 135 1.0 3.0 0.00 0.01 0.01 86 1016.9
20260905024530 57 135 1.0 4.0 0.00 0.01 0.01 85 1016.8
20260905023107 58 93 2.0 4.0 0.00 0.01 0.01 82 1016.8
20260905021532 58 87 2.0 4.0 0.00 0.01 0.01 80 1016.8
20260905020107 59 58 3.0 5.0 0.00 0.01 0.01 78 1016.6
20260905014531 60 52 3.0 5.0 0.00 0.01 0.01 75 1016.4
20260905011529 63 12 2.0 7.0 0.00 0.01 0.01 72 1016.1
20260905010031 63 3 3.0 7.0 0.00 0.01 0.01 72 1016.1
20260905004530 63 18 3.0 8.0 0.00 0.01 0.01 73 1016.0
20260905003033 63 360 3.0 7.0 0.00 0.01 0.01 72 1015.8
20260905000031 64 265 0.0 2.0 0.00 0.01 0.01 71 1015.7
20260904234531 64 247 0.0 2.0 0.00 0.01 0.01 66 1015.7
20260904233029 64 233 1.0 2.0 0.00 0.01 0.01 66 1015.7
20260904231532 63 200 1.0 4.0 0.00 0.01 0.01 68 1015.8
20260904230030 62 233 2.0 6.0 0.00 0.01 0.01 68 1015.8
20260904224531 63 225 3.0 8.0 0.00 0.01 0.01 69 1015.7
20260904223031 64 235 3.0 6.0 0.00 0.01 0.01 67 1015.7
20260904221529 65 223 1.0 5.0 0.00 0.01 0.01 67 1015.6
20260904220032 65 292 0.0 1.0 0.00 0.01 0.01 66 1015.5
20260904214605 64 291 1.0 4.0 0.00 0.01 0.01 68 1015.4
20260904211532 63 261 1.0 3.0 0.00 0.01 0.01 70 1015.4
20260904210029 63 302 0.0 3.0 0.00 0.01 0.01 70 1015.2
20260904204531 63 312 1.0 4.0 0.00 0.01 0.01 71 1015.3
20260904203029 63 260 0.0 4.0 0.00 0.01 0.01 72 1015.4
20260904201533 62 320 1.0 4.0 0.00 0.01 0.01 73 1015.5
20260904200030 61 271 1.0 4.0 0.00 0.01 0.01 73 1015.7
20260904193106 61 45 0.0 2.0 0.00 0.01 0.01 74 1015.8
20260904191531 61 21 0.0 3.0 0.00 0.01 0.01 76 1015.9
20260904190040 60 295 1.0 5.0 0.00 0.01 0.01 77 1016.1
20260904184530 59 315 0.0 3.0 0.00 0.01 0.01 79 1016.1
20260904183037 58 317 1.0 4.0 0.00 0.01 0.01 80 1016.1
20260904181533 57 259 0.0 2.0 0.00 0.01 0.01 82 1016.1
20260904180029 57 315 0.0 2.0 0.00 0.01 0.01 83 1016.1
20260904174530 56 283 0.0 2.0 0.00 0.01 0.01 83 1016.1
20260904173030 57 270 0.0 1.0 0.00 0.01 0.01 83 1016.1
20260904171532 57 278 1.0 5.0 0.00 0.01 0.01 85 1016.1
20260904170034 57 296 2.0 6.0 0.00 0.01 0.01 87 1015.9
20260904164532 56 273 1.0 4.0 0.00 0.01 0.01 90 1015.9
20260904163105 55 301 2.0 6.0 0.00 0.01 0.01 93 1015.9